Weather History for Falfurrias, TX

Change the Weather History Date:

Friday, November 11, 2011

  Actual Average (KNQI) Record (KNQI)
Temperature  
Mean Temperature 55 °F -  
Max Temperature 77 °F 74 °F 90 °F (2012)
Min Temperature 33 °F 56 °F 30 °F (2011)
Degree Days  
Heating Degree Days 10    
Growing Degree Days 5 (Base 50)    
Moisture  
Dew Point 31 °F    
Average Humidity 48    
Maximum Humidity 81    
Minimum Humidity 12    
Precipitation  
Precipitation 0.00 in - - ()
Sea Level Pressure  
Sea Level Pressure 30.22 in    
Wind  
Wind Speed 4 mph (South)    
Max Wind Speed 13 mph    
Max Gust Speed 20 mph    
Visibility 10 miles    
Events      
Averages and records for this station are not official NWS values.
T = Trace of Precipitation, MM = Missing Value Source: NWS Daily Summary

Daily Weather History Graph

Daily Weather History Graph

Search for Another Location

Airport:

Trip Planner

Search our weather history database for the weather conditions in past years. The results will help you decide how hot, cold, wet, or windy it might be!

Date:

Astronomy

Nov. 11, 2011 Rise Set
Actual Time 6:49 AM CST 5:43 PM CST
Civil Twilight 6:25 AM CST 6:07 PM CST
Nautical Twilight 5:57 AM CST 6:35 PM CST
Astronomical Twilight 5:29 AM CST 7:03 PM CST
Moon 6:21 PM CST (11/11) 7:31 AM CST (11/11)
Length of Visible Light 11h 42m
Length of Day
10h 53m
Full, 99% of the Moon is Illuminated
Nov 11
Full
Nov 18
Last Quarter
Nov 25
New
Dec 2
First Quarter
Dec 10
Full

Hourly Weather History & Observations

Time (CST) Temp. Windchill Dew Point Humidity Pressure Visibility Wind Dir Wind Speed Gust Speed Precip Events Conditions
12:15 AM 41.0 °F 39.0 °F 30.2 °F 65% 30.35 in 10.0 mi WNW 3.5 mph - N/A   Clear
12:35 AM 41.0 °F 39.0 °F 30.2 °F 65% 30.34 in 10.0 mi West 3.5 mph - N/A   Clear
12:55 AM 41.0 °F 39.0 °F 30.2 °F 65% 30.34 in 10.0 mi West 3.5 mph - N/A   Clear
1:15 AM 37.4 °F 34.9 °F 30.2 °F 75% 30.34 in 10.0 mi WSW 3.5 mph - N/A   Clear
1:35 AM 35.6 °F - 30.2 °F 81% 30.34 in 10.0 mi Calm Calm - N/A   Clear
1:55 AM 35.6 °F 31.7 °F 28.4 °F 75% 30.33 in 10.0 mi SW 4.6 mph - N/A   Clear
2:15 AM 35.6 °F - 28.4 °F 75% 30.32 in 10.0 mi Calm Calm - N/A   Clear
3:15 AM 35.6 °F 32.8 °F 28.4 °F 75% 30.31 in 10.0 mi WSW 3.5 mph - N/A   Clear
3:35 AM 35.6 °F - 28.4 °F 75% 30.30 in 10.0 mi Calm Calm - N/A   Clear
3:55 AM 35.6 °F 32.8 °F 28.4 °F 75% 30.30 in 10.0 mi West 3.5 mph - N/A   Clear
4:35 AM 35.6 °F - 28.4 °F 75% 30.29 in 10.0 mi Calm Calm - N/A   Clear
4:55 AM 35.6 °F 32.8 °F 30.2 °F 81% 30.29 in 10.0 mi NW 3.5 mph - N/A   Clear
5:15 AM 35.6 °F 32.8 °F 30.2 °F 81% 30.30 in 10.0 mi North 3.5 mph - N/A   Clear
5:35 AM 33.8 °F - 28.4 °F 81% 30.31 in 10.0 mi Calm Calm - N/A   Clear
6:15 AM 35.6 °F - 28.4 °F 75% 30.31 in 10.0 mi Calm Calm - N/A   Clear
6:35 AM 33.8 °F - 28.4 °F 81% 30.32 in 10.0 mi Calm Calm - N/A   Clear
6:55 AM 33.8 °F 30.8 °F 28.4 °F 81% 30.32 in 10.0 mi West 3.5 mph - N/A   Clear
7:15 AM 33.8 °F - 28.4 °F 81% 30.32 in 10.0 mi Calm Calm - N/A   Clear
7:35 AM 35.6 °F - 30.2 °F 81% 30.32 in 10.0 mi Calm Calm - N/A   Clear
8:15 AM 42.8 °F - 32.0 °F 66% 30.32 in 10.0 mi Calm Calm - N/A   Clear
8:35 AM 46.4 °F - 32.0 °F 57% 30.32 in 10.0 mi Calm Calm - N/A   Clear
9:15 AM 57.2 °F - 32.0 °F 38% 30.32 in 10.0 mi SW 3.5 mph - N/A   Clear
9:35 AM 60.8 °F - 32.0 °F 34% 30.32 in 10.0 mi SSW 3.5 mph - N/A   Clear
9:55 AM 62.6 °F - 28.4 °F 27% 30.32 in 10.0 mi South 3.5 mph - N/A   Clear
10:15 AM 64.4 °F - 24.8 °F 22% 30.31 in 10.0 mi SSE 6.9 mph - N/A   Clear
10:35 AM 66.2 °F - 21.2 °F 18% 30.31 in 10.0 mi South 5.8 mph - N/A   Clear
10:55 AM 68.0 °F - 21.2 °F 17% 30.30 in 10.0 mi SSE 6.9 mph - N/A   Clear
11:15 AM 69.8 °F - 19.4 °F 15% 30.28 in 10.0 mi South 8.1 mph - N/A   Clear
11:35 AM 69.8 °F - 17.6 °F 14% 30.27 in 10.0 mi SE 5.8 mph - N/A   Clear
11:55 AM 69.8 °F - 17.6 °F 14% 30.26 in 10.0 mi SSE 6.9 mph - N/A   Clear
12:35 PM 71.6 °F - 19.4 °F 14% 30.23 in 10.0 mi SSW 10.4 mph 18.4 mph N/A   Clear
1:15 PM 73.4 °F - 19.4 °F 13% 30.20 in 10.0 mi SSW 10.4 mph 17.3 mph N/A   Clear
1:35 PM 73.4 °F - 19.4 °F 13% 30.19 in 10.0 mi South 9.2 mph - N/A   Clear
1:55 PM 73.4 °F - 21.2 °F 14% 30.17 in 10.0 mi ESE 9.2 mph - N/A   Clear
2:15 PM 73.4 °F - 21.2 °F 14% 30.16 in 10.0 mi South 10.4 mph 16.1 mph N/A   Clear
2:35 PM 75.2 °F - 23.0 °F 14% 30.15 in 10.0 mi South 9.2 mph - N/A   Clear
2:55 PM 75.2 °F - 23.0 °F 14% 30.14 in 10.0 mi SSE 12.7 mph 19.6 mph N/A   Clear
3:15 PM 77.0 °F - 21.2 °F 12% 30.13 in 10.0 mi SSE 11.5 mph - N/A   Clear
3:35 PM 75.2 °F - 23.0 °F 14% 30.12 in 10.0 mi South 12.7 mph 19.6 mph N/A   Clear
3:55 PM 75.2 °F - 23.0 °F 14% 30.12 in 10.0 mi South 11.5 mph 16.1 mph N/A   Clear
4:15 PM 75.2 °F - 23.0 °F 14% 30.12 in 10.0 mi South 11.5 mph - N/A   Clear
4:35 PM 75.2 °F - 24.8 °F 15% 30.11 in 10.0 mi South 10.4 mph - N/A   Clear
4:55 PM 73.4 °F - 26.6 °F 18% 30.11 in 10.0 mi South 8.1 mph - N/A   Clear
5:15 PM 71.6 °F - 28.4 °F 20% 30.11 in 10.0 mi SSE 10.4 mph - N/A   Clear
5:35 PM 69.8 °F - 30.2 °F 23% 30.11 in 10.0 mi SE 4.6 mph - N/A   Clear
5:55 PM 68.0 °F - 35.6 °F 30% 30.11 in 10.0 mi ESE 5.8 mph - N/A   Scattered Clouds
6:15 PM 66.2 °F - 35.6 °F 32% 30.12 in 10.0 mi ESE 5.8 mph - N/A   Scattered Clouds
6:35 PM 64.4 °F - 37.4 °F 37% 30.12 in 10.0 mi ESE 5.8 mph - N/A   Clear
6:55 PM 62.6 °F - 39.2 °F 42% 30.13 in 10.0 mi SE 8.1 mph - N/A   Clear
7:15 PM 62.6 °F - 42.8 °F 48% 30.14 in 10.0 mi SE 6.9 mph - N/A   Scattered Clouds
7:35 PM 62.6 °F - 42.8 °F 48% 30.14 in 10.0 mi SE 6.9 mph - N/A   Scattered Clouds
7:55 PM 62.6 °F - 44.6 °F 52% 30.14 in 10.0 mi SE 6.9 mph - N/A   Scattered Clouds
8:15 PM 62.6 °F - 44.6 °F 52% 30.14 in 10.0 mi SE 8.1 mph - N/A   Clear
8:35 PM 60.8 °F - 44.6 °F 55% 30.14 in 10.0 mi SE 5.8 mph - N/A   Clear
8:55 PM 60.8 °F - 44.6 °F 55% 30.14 in 10.0 mi SE 6.9 mph - N/A   Clear
9:15 PM 60.8 °F - 46.4 °F 59% 30.14 in 10.0 mi SE 6.9 mph - N/A   Clear
9:35 PM 59.0 °F - 46.4 °F 63% 30.14 in 10.0 mi SSE 8.1 mph - N/A   Clear
9:55 PM 59.0 °F - 46.4 °F 63% 30.13 in 10.0 mi SSE 6.9 mph - N/A   Clear
10:15 PM 57.2 °F - 46.4 °F 67% 30.12 in 10.0 mi SSE 5.8 mph - N/A   Clear
10:35 PM 55.4 °F - 46.4 °F 72% 30.12 in 10.0 mi SSE 5.8 mph - N/A   Clear
10:55 PM 55.4 °F - 46.4 °F 72% 30.12 in 10.0 mi SSE 3.5 mph - N/A   Clear
11:15 PM 53.6 °F - 46.4 °F 77% 30.11 in 10.0 mi SSE 3.5 mph - N/A   Clear
11:35 PM 53.6 °F - 46.4 °F 77% 30.11 in 10.0 mi SSE 3.5 mph - N/A   Clear
11:55 PM 53.6 °F - 46.4 °F 77% 30.09 in 10.0 mi Calm Calm - N/A   Clear